Weather History for Surat Thani, Thailand

Change the Weather History Date:

Tuesday, October 9, 2012

  Actual Average Record
Temperature  
Mean Temperature 83 °F -  
Max Temperature 93 °F 87 °F - ()
Min Temperature 73 °F 73 °F - ()
Cooling Degree Days 18    
Growing Degree Days 33 (Base 50)    
Moisture  
Dew Point 75 °F    
Average Humidity 83    
Maximum Humidity 100    
Minimum Humidity 44    
Precipitation  
Precipitation 0.00 in 0.36 in - ()
Sea Level Pressure  
Sea Level Pressure 29.80 in    
Wind  
Wind Speed 3 mph ()    
Max Wind Speed 8 mph    
Max Gust Speed -    
Visibility 5.1 miles    
Events Rain    
T = Trace of Precipitation, MM = Missing Value Source: Averaged Metar Reports

Daily Weather History Graph

Daily Weather History Graph

Search for Another Location

Airport:

Trip Planner

Search our weather history database for the weather conditions in past years. The results will help you decide how hot, cold, wet, or windy it might be!

Date:

Astronomy

Oct. 09, 2012 Rise Set
Actual Time 6:11 AM ICT 6:09 PM ICT
Civil Twilight 5:50 AM ICT 6:30 PM ICT
Nautical Twilight 5:25 AM ICT 6:55 PM ICT
Astronomical Twilight 5:01 AM ICT 7:19 PM ICT
Moon 12:26 AM ICT (10/9) 1:13 PM ICT (10/9)
Length of Visible Light 12h 40m
Length of Day
11h 58m
Last Quarter, 41% of the Moon is Illuminated
Oct 9
Last Quarter
Oct 15
New
Oct 22
First Quarter
Oct 30
Full
Nov 7
Last Quarter

Hourly Weather History & Observations

Time (ICT) Temp. Heat Index Dew Point Humidity Pressure Visibility Wind Dir Wind Speed Gust Speed Precip Events Conditions
1:00 AM 76 °F - 74 °F 90% 29.79 in 5 mi Calm Calm - -   Mist
6:00 AM 73.4 °F - 73.4 °F 100% 29.80 in 4.3 mi SW 3.5 mph - N/A   Scattered Clouds
7:00 AM 73 °F - 72 °F 95% 29.81 in 6 mi Calm Calm - -   Scattered Clouds
7:00 AM 75.2 °F - 75.2 °F 100% 29.80 in 6.2 mi SW 3.5 mph - N/A   Partly Cloudy
8:00 AM 80.6 °F 86.2 °F 75.2 °F 84% 29.83 in 6.2 mi SSW 4.6 mph - N/A   Scattered Clouds
9:00 AM 84.2 °F 92.3 °F 75.2 °F 74% 29.86 in 6.2 mi SSW 5.8 mph - N/A   Partly Cloudy
11:00 AM 87.8 °F 97.6 °F 75.2 °F 66% 29.83 in 6.2 mi SSW 5.8 mph - N/A   Scattered Clouds
12:00 PM 89.6 °F 98.2 °F 73.4 °F 59% 29.80 in 6.2 mi SSW 8.1 mph - N/A   Scattered Clouds
1:00 PM 93 °F - 74 °F 44% 29.77 in 6 mi NNW 5.8 mph - -   Partly Cloudy
1:00 PM 91.4 °F 98.4 °F 71.6 °F 52% 29.77 in 6.2 mi West 6.9 mph - N/A   Scattered Clouds
2:00 PM 89.6 °F 99.8 °F 75.2 °F 62% 29.74 in 6.2 mi North 5.8 mph - N/A   Scattered Clouds
3:00 PM 78.8 °F - 77.0 °F 94% 29.74 in 0.2 mi WSW 8.1 mph - N/A Rain Heavy Rain
4:00 PM 75.2 °F - 75.2 °F 100% 29.74 in 5.0 mi Calm Calm - N/A Rain Light Rain
5:00 PM 82.4 °F 89.5 °F 75.2 °F 79% 29.74 in 6.2 mi Calm Calm - N/A   Overcast
6:00 PM 77.0 °F - 77.0 °F 100% 29.77 in 5.0 mi ESE 3.5 mph - N/A   Scattered Clouds
7:00 PM 77 °F - 73 °F 85% 29.80 in 5 mi Calm Calm - -   Scattered Clouds
7:00 PM 75.2 °F - 75.2 °F 100% 29.80 in 4.3 mi Calm Calm - N/A   Scattered Clouds
9:00 PM 75.2 °F - 75.2 °F 100% 29.86 in 4.3 mi Calm Calm - N/A   Scattered Clouds
10:00 PM 75.2 °F - 75.2 °F 100% 29.89 in 3.1 mi Calm Calm - N/A   Scattered Clouds